Time,TemperatureF,DewpointF,PressureIn,WindDirection,WindDirectionDegrees,WindSpeedMPH,WindSpeedGustMPH,Humidity,HourlyPrecipIn,Conditions,Clouds,dailyrainin,SoftwareType,DateUTC
2013-05-01 00:12:00,55.0,53.0,30.24,South,183,0.0,2.0,92,0.00,,,0.00,weatherlink.com 1.10,2013-05-01 04:12:00,
2013-05-01 00:27:00,54.9,53.0,30.24,South,183,0.0,2.0,92,0.00,,,0.00,weatherlink.com 1.10,2013-05-01 04:27:00,
2013-05-01 00:42:00,54.8,52.0,30.24,SSE,154,0.0,2.0,91,0.00,,,0.00,weatherlink.com 1.10,2013-05-01 04:42:00,
2013-05-01 00:57:00,54.5,52.0,30.25,SSW,200,0.0,2.0,91,0.00,,,0.00,weatherlink.com 1.10,2013-05-01 04:57:00,
2013-05-01 01:12:00,54.4,51.0,30.25,WSW,238,1.0,3.0,88,0.00,,,0.00,weatherlink.com 1.10,2013-05-01 05:12:00,
2013-05-01 01:27:00,54.3,49.0,30.24,West,270,0.0,3.0,83,0.00,,,0.00,weatherlink.com 1.10,2013-05-01 05:27:00,
2013-05-01 01:42:00,54.3,50.0,30.24,West,270,0.0,0.0,85,0.00,,,0.00,weatherlink.com 1.10,2013-05-01 05:42:00,
2013-05-01 01:57:00,54.1,49.0,30.24,West,270,0.0,0.0,84,0.00,,,0.00,weatherlink.com 1.10,2013-05-01 05:57:00,
2013-05-01 02:12:00,53.8,50.0,30.24,West,270,0.0,0.0,86,0.00,,,0.00,weatherlink.com 1.10,2013-05-01 06:12:00,
2013-05-01 02:27:00,53.6,50.0,30.24,West,270,0.0,0.0,87,0.00,,,0.00,weatherlink.com 1.10,2013-05-01 06:27:00,
2013-05-01 02:42:00,53.4,49.0,30.24,West,270,0.0,0.0,86,0.00,,,0.00,weatherlink.com 1.10,2013-05-01 06:42:00,
2013-05-01 02:57:00,53.1,49.0,30.24,West,270,0.0,0.0,87,0.00,,,0.00,weatherlink.com 1.10,2013-05-01 06:57:00,
2013-05-01 03:13:00,52.4,49.0,30.24,West,270,0.0,0.0,88,0.00,,,0.00,weatherlink.com 1.10,2013-05-01 07:13:00,
2013-05-01 03:28:00,51.6,49.0,30.24,West,270,0.0,0.0,89,0.00,,,0.00,weatherlink.com 1.10,2013-05-01 07:28:00,
2013-05-01 03:43:00,51.1,49.0,30.25,West,270,0.0,0.0,91,0.00,,,0.00,weatherlink.com 1.10,2013-05-01 07:43:00,
2013-05-01 03:58:00,51.0,49.0,30.25,West,270,0.0,0.0,91,0.00,,,0.00,weatherlink.com 1.10,2013-05-01 07:58:00,
2013-05-01 04:13:00,51.1,49.0,30.25,West,270,0.0,0.0,92,0.00,,,0.00,weatherlink.com 1.10,2013-05-01 08:13:00,
2013-05-01 04:28:00,51.1,49.0,30.25,West,270,0.0,0.0,92,0.00,,,0.00,weatherlink.com 1.10,2013-05-01 08:28:00,
2013-05-01 04:43:00,51.0,49.0,30.25,West,270,0.0,0.0,92,0.00,,,0.00,weatherlink.com 1.10,2013-05-01 08:43:00,
2013-05-01 04:58:00,51.0,49.0,30.25,West,270,0.0,0.0,93,0.00,,,0.00,weatherlink.com 1.10,2013-05-01 08:58:00,
2013-05-01 05:13:00,51.2,49.0,30.25,West,270,0.0,0.0,93,0.00,,,0.00,weatherlink.com 1.10,2013-05-01 09:13:00,
2013-05-01 05:28:00,51.2,49.0,30.25,West,270,0.0,0.0,93,0.00,,,0.00,weatherlink.com 1.10,2013-05-01 09:28:00,
2013-05-01 05:43:00,51.0,49.0,30.25,West,270,0.0,0.0,93,0.00,,,0.00,weatherlink.com 1.10,2013-05-01 09:43:00,
2013-05-01 05:58:00,51.0,49.0,30.26,West,270,0.0,0.0,94,0.00,,,0.00,weatherlink.com 1.10,2013-05-01 09:58:00,
2013-05-01 06:13:00,51.2,50.0,30.27,West,270,0.0,1.0,94,0.00,,,0.00,weatherlink.com 1.10,2013-05-01 10:13:00,
2013-05-01 06:28:00,51.3,50.0,30.27,West,270,0.0,0.0,94,0.00,,,0.00,weatherlink.com 1.10,2013-05-01 10:28:00,
2013-05-01 06:43:00,51.7,50.0,30.28,West,270,0.0,2.0,94,0.00,,,0.00,weatherlink.com 1.10,2013-05-01 10:43:00,
2013-05-01 06:59:00,52.1,50.0,30.29,North,356,1.0,2.0,91,0.00,,,0.00,weatherlink.com 1.10,2013-05-01 10:59:00,
2013-05-01 07:13:00,52.5,49.0,30.30,NNE,32,2.0,4.0,88,0.00,,,0.00,weatherlink.com 1.10,2013-05-01 11:13:00,
2013-05-01 07:28:00,53.3,47.0,30.30,NNE,32,3.0,4.0,80,0.00,,,0.00,weatherlink.com 1.10,2013-05-01 11:28:00,
2013-05-01 07:43:00,55.5,47.0,30.30,ENE,67,3.0,5.0,73,0.00,,,0.00,weatherlink.com 1.10,2013-05-01 11:43:00,
2013-05-01 07:58:00,56.5,46.0,30.31,NE,50,6.0,7.0,68,0.00,,,0.00,weatherlink.com 1.10,2013-05-01 11:58:00,
2013-05-01 08:13:00,57.3,44.0,30.32,NNE,24,1.0,7.0,61,0.00,,,0.00,weatherlink.com 1.10,2013-05-01 12:13:00,
2013-05-01 08:28:00,57.8,42.0,30.32,NE,45,4.0,8.0,56,0.00,,,0.00,weatherlink.com 1.10,2013-05-01 12:28:00,
2013-05-01 08:43:00,57.7,41.0,30.32,ENE,63,2.0,7.0,55,0.00,,,0.00,weatherlink.com 1.10,2013-05-01 12:43:00,
2013-05-01 08:58:00,58.2,40.0,30.32,NE,48,5.0,10.0,52,0.00,,,0.00,weatherlink.com 1.10,2013-05-01 12:58:00,
2013-05-01 09:13:00,58.7,41.0,30.33,ENE,73,3.0,7.0,52,0.00,,,0.00,weatherlink.com 1.10,2013-05-01 13:13:00,
2013-05-01 09:28:00,59.3,38.0,30.33,NE,39,1.0,6.0,46,0.00,,,0.00,weatherlink.com 1.10,2013-05-01 13:28:00,
2013-05-01 09:44:00,59.8,39.0,30.33,NNE,23,4.0,8.0,47,0.00,,,0.00,weatherlink.com 1.10,2013-05-01 13:44:00,
2013-05-01 09:59:00,60.0,39.0,30.33,NE,46,7.0,8.0,46,0.00,,,0.00,weatherlink.com 1.10,2013-05-01 13:59:00,
2013-05-01 10:14:00,61.2,40.0,30.34,NNE,25,0.0,7.0,46,0.00,,,0.00,weatherlink.com 1.10,2013-05-01 14:14:00,
2013-05-01 10:29:00,62.0,41.0,30.34,SSW,202,2.0,6.0,47,0.00,,,0.00,weatherlink.com 1.10,2013-05-01 14:29:00,
2013-05-01 10:44:00,62.5,42.0,30.34,East,83,5.0,10.0,47,0.00,,,0.00,weatherlink.com 1.10,2013-05-01 14:44:00,
2013-05-01 10:59:00,62.1,42.0,30.34,NNE,29,2.0,7.0,48,0.00,,,0.00,weatherlink.com 1.10,2013-05-01 14:59:00,
2013-05-01 11:14:00,63.1,42.0,30.34,ENE,75,4.0,8.0,47,0.00,,,0.00,weatherlink.com 1.10,2013-05-01 15:14:00,
2013-05-01 11:29:00,62.9,43.0,30.34,North,10,7.0,12.0,48,0.00,,,0.00,weatherlink.com 1.10,2013-05-01 15:29:00,
2013-05-01 11:44:00,64.2,42.0,30.33,NNE,33,7.0,8.0,44,0.00,,,0.00,weatherlink.com 1.10,2013-05-01 15:44:00,
2013-05-01 11:59:00,65.2,42.0,30.33,NE,42,7.0,9.0,43,0.00,,,0.00,weatherlink.com 1.10,2013-05-01 15:59:00,
2013-05-01 12:14:00,65.9,41.0,30.33,SE,140,3.0,8.0,40,0.00,,,0.00,weatherlink.com 1.10,2013-05-01 16:14:00,
2013-05-01 12:29:00,65.0,37.0,30.32,ESE,103,4.0,10.0,35,0.00,,,0.00,weatherlink.com 1.10,2013-05-01 16:29:00,
2013-05-01 12:44:00,66.4,41.0,30.32,NNE,25,6.0,8.0,40,0.00,,,0.00,weatherlink.com 1.10,2013-05-01 16:44:00,
2013-05-01 12:59:00,66.4,41.0,30.32,NE,46,8.0,11.0,39,0.00,,,0.00,weatherlink.com 1.10,2013-05-01 16:59:00,
2013-05-01 13:14:00,67.3,39.0,30.32,ESE,114,8.0,13.0,36,0.00,,,0.00,weatherlink.com 1.10,2013-05-01 17:14:00,
2013-05-01 13:29:00,67.2,41.0,30.31,East,83,8.0,9.0,39,0.00,,,0.00,weatherlink.com 1.10,2013-05-01 17:29:00,
2013-05-01 13:44:00,67.1,42.0,30.31,NE,43,5.0,9.0,40,0.00,,,0.00,weatherlink.com 1.10,2013-05-01 17:44:00,
2013-05-01 13:59:00,67.2,39.0,30.31,SE,131,5.0,10.0,36,0.00,,,0.00,weatherlink.com 1.10,2013-05-01 17:59:00,
2013-05-01 14:29:00,68.8,42.0,30.31,NE,35,2.0,9.0,38,0.00,,,0.00,weatherlink.com 1.10,2013-05-01 18:29:00,
2013-05-01 14:44:00,68.5,36.0,30.30,East,85,4.0,9.0,30,0.00,,,0.00,weatherlink.com 1.10,2013-05-01 18:44:00,
2013-05-01 14:59:00,69.9,39.0,30.30,SE,129,5.0,11.0,32,0.00,,,0.00,weatherlink.com 1.10,2013-05-01 18:59:00,
2013-05-01 15:14:00,69.5,37.0,30.30,NNE,17,8.0,12.0,30,0.00,,,0.00,weatherlink.com 1.10,2013-05-01 19:14:00,
2013-05-01 15:29:00,69.4,37.0,30.29,SE,136,4.0,12.0,30,0.00,,,0.00,weatherlink.com 1.10,2013-05-01 19:29:00,
2013-05-01 15:44:00,69.9,36.0,30.29,East,101,3.0,11.0,29,0.00,,,0.00,weatherlink.com 1.10,2013-05-01 19:44:00,
2013-05-01 15:59:00,70.0,35.0,30.29,ENE,60,11.0,13.0,28,0.00,,,0.00,weatherlink.com 1.10,2013-05-01 19:59:00,
2013-05-01 16:14:00,70.1,36.0,30.29,SE,125,3.0,7.0,29,0.00,,,0.00,weatherlink.com 1.10,2013-05-01 20:14:00,
2013-05-01 16:29:00,70.3,36.0,30.29,SE,127,6.0,13.0,28,0.00,,,0.00,weatherlink.com 1.10,2013-05-01 20:29:00,
2013-05-01 16:45:00,70.9,38.0,30.29,NE,44,5.0,11.0,30,0.00,,,0.00,weatherlink.com 1.10,2013-05-01 20:45:00,
2013-05-01 16:59:00,70.7,36.0,30.30,ENE,59,4.0,10.0,28,0.00,,,0.00,weatherlink.com 1.10,2013-05-01 20:59:00,
2013-05-01 17:14:00,70.9,36.0,30.30,South,170,2.0,10.0,28,0.00,,,0.00,weatherlink.com 1.10,2013-05-01 21:14:00,
2013-05-01 17:29:00,71.0,35.0,30.30,ESE,108,6.0,8.0,27,0.00,,,0.00,weatherlink.com 1.10,2013-05-01 21:29:00,
2013-05-01 17:44:00,70.8,36.0,30.30,ESE,116,2.0,10.0,28,0.00,,,0.00,weatherlink.com 1.10,2013-05-01 21:44:00,
2013-05-01 17:59:00,70.8,36.0,30.30,East,96,2.0,8.0,28,0.00,,,0.00,weatherlink.com 1.10,2013-05-01 21:59:00,
2013-05-01 18:15:00,70.3,36.0,30.30,ESE,109,1.0,11.0,29,0.00,,,0.00,weatherlink.com 1.10,2013-05-01 22:15:00,
2013-05-01 18:30:00,69.9,36.0,30.29,ENE,64,4.0,9.0,29,0.00,,,0.00,weatherlink.com 1.10,2013-05-01 22:30:00,
2013-05-01 18:45:00,69.4,37.0,30.29,ESE,111,5.0,9.0,30,0.00,,,0.00,weatherlink.com 1.10,2013-05-01 22:45:00,
2013-05-01 19:00:00,68.6,36.0,30.30,ESE,120,6.0,10.0,30,0.00,,,0.00,weatherlink.com 1.10,2013-05-01 23:00:00,
2013-05-01 19:15:00,67.6,37.0,30.30,ESE,106,1.0,7.0,32,0.00,,,0.00,weatherlink.com 1.10,2013-05-01 23:15:00,
2013-05-01 19:30:00,66.8,37.0,30.29,ESE,102,0.0,7.0,34,0.00,,,0.00,weatherlink.com 1.10,2013-05-01 23:30:00,
2013-05-01 19:45:00,65.9,38.0,30.30,NE,46,0.0,6.0,36,0.00,,,0.00,weatherlink.com 1.10,2013-05-01 23:45:00,
2013-05-01 20:00:00,64.8,38.0,30.30,NE,43,0.0,5.0,38,0.00,,,0.00,weatherlink.com 1.10,2013-05-02 00:00:00,
2013-05-01 20:15:00,62.7,40.0,30.30,NE,50,0.0,3.0,44,0.00,,,0.00,weatherlink.com 1.10,2013-05-02 00:15:00,
2013-05-01 20:30:00,60.5,42.0,30.31,NE,50,1.0,2.0,51,0.00,,,0.00,weatherlink.com 1.10,2013-05-02 00:30:00,
2013-05-01 20:45:00,58.2,42.0,30.31,NE,50,0.0,2.0,55,0.00,,,0.00,weatherlink.com 1.10,2013-05-02 00:45:00,
2013-05-01 21:00:00,56.3,43.0,30.32,NE,50,0.0,4.0,62,0.00,,,0.00,weatherlink.com 1.10,2013-05-02 01:00:00,
2013-05-01 21:15:00,54.8,43.0,30.32,NE,54,0.0,4.0,64,0.00,,,0.00,weatherlink.com 1.10,2013-05-02 01:15:00,
2013-05-01 21:30:00,54.5,42.0,30.32,NE,50,0.0,4.0,63,0.00,,,0.00,weatherlink.com 1.10,2013-05-02 01:30:00,
2013-05-01 21:45:00,54.3,41.0,30.33,SE,131,0.0,3.0,62,0.00,,,0.00,weatherlink.com 1.10,2013-05-02 01:45:00,
2013-05-01 22:00:00,53.6,41.0,30.33,SE,130,0.0,1.0,63,0.00,,,0.00,weatherlink.com 1.10,2013-05-02 02:00:00,
2013-05-01 22:15:00,52.6,41.0,30.33,SE,130,0.0,0.0,66,0.00,,,0.00,weatherlink.com 1.10,2013-05-02 02:15:00,
2013-05-01 22:30:00,51.7,42.0,30.34,SE,130,0.0,0.0,69,0.00,,,0.00,weatherlink.com 1.10,2013-05-02 02:30:00,
2013-05-01 22:45:00,50.6,41.0,30.34,SE,130,0.0,0.0,71,0.00,,,0.00,weatherlink.com 1.10,2013-05-02 02:45:00,
2013-05-01 23:00:00,49.5,41.0,30.34,SE,130,0.0,0.0,73,0.00,,,0.00,weatherlink.com 1.10,2013-05-02 03:00:00,
2013-05-01 23:15:00,48.3,41.0,30.35,SE,130,0.0,0.0,76,0.00,,,0.00,weatherlink.com 1.10,2013-05-02 03:15:00,
2013-05-01 23:30:00,47.3,41.0,30.35,SE,130,0.0,0.0,79,0.00,,,0.00,weatherlink.com 1.10,2013-05-02 03:30:00,
2013-05-01 23:45:00,46.5,41.0,30.36,SE,130,0.0,0.0,81,0.00,,,0.00,weatherlink.com 1.10,2013-05-02 03:45:00,